| time (UTC) | temp C | wind direction | speed KPH | gust KPH | rain 1hr cm | rain 24hr cm | rain mn cm | humidity % | barometer mb |
| 20260502183023 | 7 | 290 | 8.0 | 0.0 | 0.00 | 0.00 | 0.00 | 32 | 1016.8 |
| 20260502181526 | 7 | 8 | 6.4 | 0.0 | 0.00 | 0.00 | 0.00 | 30 | 1017.1 |
| 20260502163009 | 5 | 281 | 8.0 | 0.0 | 0.00 | 0.00 | 0.00 | 39 | 1017.6 |
| 20260502161510 | 5 | 274 | 6.4 | 0.0 | 0.00 | 0.00 | 0.00 | 38 | 1017.8 |
| 20260502151500 | 4 | 10 | 8.0 | 0.0 | 0.00 | 0.00 | 0.00 | 48 | 1017.9 |
| 20260502150130 | 3 | 263 | 11.3 | 0.0 | 0.00 | 0.00 | 0.00 | 49 | 1018.0 |
| 20260502123030 | 0 | 269 | 4.8 | 0.0 | 0.00 | 0.00 | 0.00 | 89 | 1018.7 |
| 20260502121527 | -1 | 278 | 0.0 | 0.0 | 0.00 | 0.00 | 0.00 | 93 | 1018.7 |
| 20260502114526 | -2 | 285 | 0.0 | 0.0 | 0.00 | 0.00 | 0.00 | 95 | 1018.6 |
| 20260502113025 | -3 | 285 | 0.0 | 0.0 | 0.00 | 0.00 | 0.00 | 96 | 1018.6 |
| 20260502111523 | -3 | 285 | 0.0 | 0.0 | 0.00 | 0.00 | 0.00 | 96 | 1018.5 |
| 20260502110022 | -3 | 285 | 0.0 | 0.0 | 0.00 | 0.00 | 0.00 | 95 | 1018.4 |
| 20260502104521 | -4 | 285 | 0.0 | 0.0 | 0.00 | 0.00 | 0.00 | 95 | 1018.3 |
| 20260502103048 | -3 | 285 | 0.0 | 0.0 | 0.00 | 0.00 | 0.00 | 95 | 1018.4 |
| 20260502101519 | -3 | 285 | 0.0 | 0.0 | 0.00 | 0.00 | 0.00 | 95 | 1018.1 |
| 20260502091514 | -3 | 285 | 0.0 | 0.0 | 0.00 | 0.00 | 0.00 | 94 | 1017.9 |
| 20260502071506 | -2 | 285 | 0.0 | 0.0 | 0.00 | 0.00 | 0.00 | 93 | 1017.8 |
| 20260502070007 | -2 | 285 | 0.0 | 0.0 | 0.00 | 0.00 | 0.00 | 92 | 1017.7 |
| 20260502064503 | -2 | 285 | 0.0 | 0.0 | 0.00 | 0.00 | 0.00 | 92 | 1017.7 |
| 20260502063002 | -2 | 285 | 0.0 | 0.0 | 0.00 | 0.00 | 0.00 | 91 | 1017.8 |
| 20260502061601 | -2 | 285 | 0.0 | 0.0 | 0.00 | 0.00 | 0.00 | 91 | 1017.8 |
| 20260502060108 | -2 | 285 | 0.0 | 0.0 | 0.00 | 0.00 | 0.00 | 91 | 1017.9 |
| 20260502054625 | -1 | 278 | 0.0 | 0.0 | 0.00 | 0.00 | 0.00 | 91 | 1018.0 |
| 20260502053112 | -1 | 278 | 0.0 | 0.0 | 0.00 | 0.00 | 0.00 | 90 | 1017.8 |
| 20260502051556 | -1 | 278 | 0.0 | 0.0 | 0.00 | 0.00 | 0.00 | 90 | 1017.9 |
| 20260502050055 | -1 | 277 | 0.0 | 0.0 | 0.00 | 0.00 | 0.00 | 89 | 1017.9 |
| 20260502044554 | -1 | 283 | 0.0 | 0.0 | 0.00 | 0.00 | 0.00 | 89 | 1017.8 |
| 20260502043103 | -1 | 268 | 0.0 | 0.0 | 0.00 | 0.00 | 0.00 | 89 | 1017.8 |
| 20260502041551 | -1 | 268 | 0.0 | 0.0 | 0.00 | 0.00 | 0.00 | 88 | 1017.6 |
| 20260502040051 | -1 | 268 | 0.0 | 0.0 | 0.00 | 0.00 | 0.00 | 87 | 1017.7 |
| 20260502034547 | 0 | 268 | 0.0 | 0.0 | 0.00 | 0.00 | 0.00 | 85 | 1017.7 |
| 20260502033046 | 0 | 268 | 0.0 | 0.0 | 0.00 | 0.00 | 0.00 | 84 | 1017.9 |
| 20260502031545 | 0 | 291 | 0.0 | 0.0 | 0.00 | 0.00 | 0.00 | 84 | 1017.9 |
| 20260502030053 | 0 | 277 | 0.0 | 0.0 | 0.00 | 0.00 | 0.00 | 83 | 1017.8 |
| 20260502024545 | 0 | 307 | 1.6 | 0.0 | 0.00 | 0.00 | 0.00 | 81 | 1017.8 |
| 20260502023044 | 0 | 286 | 1.6 | 0.0 | 0.00 | 0.00 | 0.00 | 81 | 1017.9 |
| 20260502021544 | 0 | 322 | 1.6 | 0.0 | 0.00 | 0.00 | 0.00 | 79 | 1017.9 |
| 20260502020042 | 0 | 274 | 1.6 | 0.0 | 0.00 | 0.00 | 0.00 | 79 | 1017.9 |
| 20260502014540 | 0 | 286 | 3.2 | 0.0 | 0.00 | 0.00 | 0.00 | 78 | 1017.6 |
| 20260502013041 | 1 | 289 | 3.2 | 0.0 | 0.00 | 0.00 | 0.00 | 78 | 1017.6 |
| 20260502011539 | 1 | 299 | 3.2 | 0.0 | 0.00 | 0.00 | 0.00 | 76 | 1017.4 |
| 20260502010044 | 1 | 305 | 4.8 | 0.0 | 0.00 | 0.00 | 0.00 | 76 | 1017.4 |
| 20260502004537 | 1 | 289 | 6.4 | 0.0 | 0.00 | 0.00 | 0.00 | 74 | 1017.4 |
| 20260502003037 | 1 | 351 | 6.4 | 0.0 | 0.00 | 0.00 | 0.00 | 73 | 1017.3 |
| 20260502001536 | 1 | 283 | 4.8 | 0.0 | 0.00 | 0.00 | 0.00 | 72 | 1017.2 |
| 20260502000034 | 1 | 305 | 6.4 | 0.0 | 0.00 | 0.00 | 0.00 | 72 | 1017.0 |
| 20260501234535 | 1 | 275 | 6.4 | 0.0 | 0.00 | 0.00 | 0.00 | 71 | 1016.9 |
| 20260501233035 | 2 | 306 | 6.4 | 0.0 | 0.00 | 0.00 | 0.00 | 68 | 1016.8 |
| 20260501231531 | 2 | 326 | 4.8 | 0.0 | 0.00 | 0.00 | 0.00 | 66 | 1016.8 |
| 20260501230034 | 2 | 264 | 6.4 | 0.0 | 0.00 | 0.00 | 0.00 | 66 | 1016.8 |
| 20260501224529 | 2 | 281 | 4.8 | 0.0 | 0.00 | 0.00 | 0.00 | 65 | 1016.7 |
| 20260501223037 | 2 | 276 | 8.0 | 0.0 | 0.00 | 0.00 | 0.00 | 64 | 1016.5 |
| 20260501221532 | 3 | 318 | 6.4 | 0.0 | 0.00 | 0.00 | 0.00 | 61 | 1016.5 |
| 20260501220025 | 3 | 349 | 6.4 | 0.0 | 0.00 | 0.00 | 0.00 | 61 | 1016.3 |
| 20260501214530 | 3 | 291 | 9.7 | 0.0 | 0.00 | 0.00 | 0.00 | 63 | 1016.2 |
| 20260501213022 | 3 | 295 | 4.8 | 0.0 | 0.00 | 0.00 | 0.00 | 66 | 1016.1 |
| 20260501211522 | 2 | 271 | 9.7 | 0.0 | 0.00 | 0.00 | 0.00 | 67 | 1015.9 |
| 20260501210023 | 2 | 319 | 3.2 | 0.0 | 0.00 | 0.00 | 0.00 | 68 | 1016.0 |
| 20260501204521 | 2 | 290 | 4.8 | 0.0 | 0.00 | 0.00 | 0.00 | 66 | 1015.9 |
| 20260501203027 | 2 | 278 | 6.4 | 0.0 | 0.00 | 0.00 | 0.00 | 65 | 1016.0 |
| 20260501201520 | 2 | 346 | 6.4 | 0.0 | 0.00 | 0.00 | 0.00 | 60 | 1015.9 |
| 20260501200019 | 2 | 238 | 4.8 | 0.0 | 0.00 | 0.00 | 0.00 | 62 | 1015.8 |
| 20260501194519 | 2 | 272 | 6.4 | 0.0 | 0.00 | 0.00 | 0.00 | 65 | 1015.9 |
| 20260501193017 | 2 | 295 | 6.4 | 0.0 | 0.00 | 0.00 | 0.00 | 62 | 1015.8 |
| 20260501191517 | 2 | 313 | 4.8 | 0.0 | 0.00 | 0.00 | 0.00 | 63 | 1015.8 |
| 20260501190016 | 2 | 316 | 4.8 | 0.0 | 0.00 | 0.00 | 0.00 | 62 | 1015.8 |
| 20260501184515 | 2 | 332 | 4.8 | 0.0 | 0.00 | 0.00 | 0.00 | 59 | 1015.8 |